PDT,Max TemperatureF,Mean TemperatureF,Min TemperatureF,Max Dew PointF,MeanDew PointF,Min DewpointF,Max Humidity, Mean Humidity, Min Humidity, Max Sea Level PressureIn, Mean Sea Level PressureIn, Min Sea Level PressureIn, Max VisibilityMiles, Mean VisibilityMiles, Min VisibilityMiles, Max Wind SpeedMPH, Mean Wind SpeedMPH, Max Gust SpeedMPH,PrecipitationIn, CloudCover, Events, WindDirDegrees
2012-9-1,74,60,46,40,32,26,79,38,17,30.03,29.96,29.81,10,10,10,18,9,25,0.00,0,,214
2012-9-2,74,60,45,38,33,30,57,36,19,30.09,30.05,30.02,10,10,10,14,9,21,0.00,1,Rain,212
2012-9-3,77,62,47,38,34,31,67,38,20,30.10,30.05,30.00,10,10,10,14,5,22,0.00,0,,222
2012-9-4,77,62,48,38,37,36,67,37,23,30.17,30.12,30.06,10,10,10,12,7,18,0.00,0,Rain,300
2012-9-5,79,64,50,46,39,37,65,37,22,30.09,29.99,29.89,10,9,1,23,6,28,0.00,1,Rain,301
2012-9-6,73,62,50,51,44,39,98,59,30,30.14,30.06,29.97,10,10,10,18,13,26,0.00,0,,7
2012-9-7,78,64,50,50,41,33,96,46,20,30.26,30.21,30.15,10,10,10,10,5,,0.00,0,Rain,26
2012-9-8,84,67,50,47,39,27,82,38,12,30.17,30.05,29.86,10,10,10,15,6,,0.00,1,Rain,26
2012-9-9,80,68,54,48,41,27,61,37,17,29.83,29.80,29.76,10,10,10,23,11,31,0.01,3,Rain,207
2012-9-10,67,56,44,50,36,21,100,53,17,30.05,29.94,29.85,10,10,6,31,18,41,0.00,3,,220
2012-9-11,64,50,36,33,26,22,81,48,21,30.27,30.20,30.06,10,10,10,12,6,,0.00,0,,245
2012-9-12,68,52,37,30,26,22,72,40,21,30.43,30.37,30.27,10,10,10,9,3,,0.00,0,,20
2012-9-13,76,59,42,36,33,29,72,40,18,30.39,30.30,30.18,10,10,10,9,6,,0.00,0,,32
2012-9-14,84,64,46,47,34,22,95,39,10,30.18,30.08,30.00,10,9,5,12,7,,0.00,0,Rain,98
2012-9-15,82,65,49,36,32,30,47,32,15,30.08,30.05,30.00,10,9,2,9,4,,0.00,0,,184
2012-9-16,80,66,51,44,32,24,71,33,13,30.17,30.11,30.09,10,10,10,9,4,,0.00,0,,301
2012-9-17,77,63,49,36,32,25,47,31,17,30.17,30.13,30.08,10,10,10,6,3,,0.00,0,Rain,33
2012-9-18,83,66,49,36,31,28,57,29,14,30.12,30.07,30.03,10,10,10,10,3,,0.00,0,,194
2012-9-19,81,64,47,40,35,31,60,35,19,30.14,30.09,30.05,10,10,10,7,3,,0.00,0,,155
2012-9-20,85,66,48,45,36,33,73,34,16,30.15,30.09,30.06,10,10,9,12,3,,0.00,0,Rain,260
2012-9-21,82,66,51,48,41,33,86,44,22,30.08,30.02,29.95,10,10,10,12,5,,0.00,0,,2
2012-9-22,79,64,50,49,44,40,77,50,27,30.03,29.99,29.95,10,10,10,10,2,,0.00,1,,209
2012-9-23,69,58,49,57,48,44,100,71,43,30.11,30.06,30.00,10,10,5,9,5,,0.00,1,Rain,213
2012-9-24,73,60,48,49,45,43,99,61,34,30.11,30.04,29.96,10,10,10,8,3,,0.00,2,,179
2012-9-25,72,60,48,50,46,44,99,65,37,30.02,29.98,29.95,10,10,10,9,3,,0.00,0,,191
2012-9-26,73,58,44,50,44,39,100,62,33,30.09,30.06,30.02,10,10,10,6,1,,0.00,0,Rain,287
2012-9-27,75,60,46,50,43,39,100,57,28,30.11,30.05,29.98,10,10,10,12,2,,0.00,0,,38
2012-9-28,77,62,48,51,43,36,100,55,23,29.99,29.96,29.91,10,10,9,13,6,,0.00,1,,51
2012-9-29,76,64,53,46,44,40,70,51,31,30.10,30.05,29.97,10,10,10,16,6,21,0.00,2,Rain,208
2012-9-30,74,58,43,47,34,24,100,47,16,30.30,30.25,30.11,10,10,8,10,4,,0.00,0,,224